Weather in Velikiy Oktyabr

Russia / Volgograd Oblast     48°39′35″N   44°43′42″E
temp.,
°C
wind,
m/s
gust,
m/s
humid.,
%
clouds,
%
prec.,
mm/h
press.,
hPa
HPBL,
m
26 february, fri
fri2600:00−5wsw71487100 0.7 1021527
03:00−3w51292100 0.8 1019407
06:00−3w4894100 0.0 1019201
09:00−1w4894100 0.0 1018250
12:00+2w4794100 0.0 1018292
15:00+4wsw489498 0.0 1017347
18:00+3w51297100 0.0 1016387
21:00+4wsw51395100 0.0 1015340
27 february, sat
sat2700:00+4w61595100 0.1 1013572
03:00+4w61592100 0.2 1012536
06:00+4w61393100 0.1 1011496
09:00+4w61390100 0.1 1010733
12:00+4w51186100 0.0 1010832
15:00+3w51184100 0.0 1009785
18:00+2w41187100 0.0 1009595
21:00+2w41189100 0.0 1010486
28 february, sun
sun2800:00+1w4119025 0.0 1010459
03:00+1wnw4108454 0.0 1011569
06:000nnw4785100 0.0 1012481
09:00−1nw586461 0.0 1013641
12:000nw57560 0.0 1014772
15:000nw57550 0.0 1014836
18:00−2nnw46630 0.0 1016588
21:00−3nnw36640 0.0 1018651
1 march, mon
mon100:00−4n34660 0.0 1019622
03:00−5nnw34649 0.0 1021590
06:00−5nnw346443 0.0 1022557
09:00−5nnw346056 0.0 1024611
12:00−3nnw345261 0.0 1025878
15:00−1nnw355069 0.0 1025962
18:00−3nnw355961 0.0 1026712
21:00−3nnw356140 0.0 1028704
2 march, tue
tue200:00−4nw24610 0.0 1028558
03:00−4w25660 0.0 1027381
06:00−3wsw497257 0.0 1025379
09:00−1wsw6106979 0.0 1023778
12:00+1wsw71262100 0.0 1021990
15:00+1w81383100 0.0 1018931
18:00+1w71496100 0.1 1015831
21:00+1wnw71396100 0.4 1014830